TimeEST,TemperatureF,Dew PointF,Humidity,Sea Level PressureIn,VisibilityMPH,Wind Direction,Wind SpeedMPH,Gust SpeedMPH,PrecipitationIn,Events,Conditions,WindDirDegrees,DateUTC
12:53 AM,37.9,30.9,76,30.10,10.0,North,6.9,-,N/A,,Overcast,360,2012-12-09 05:53:00
1:18 AM,37.9,28.9,70,30.08,10.0,Calm,Calm,-,N/A,,Overcast,0,2012-12-09 06:18:00
1:27 AM,37.9,30.0,73,30.08,10.0,North,4.6,-,N/A,,Overcast,10,2012-12-09 06:27:00
1:53 AM,37.9,30.0,73,30.12,10.0,North,4.6,-,N/A,,Overcast,10,2012-12-09 06:53:00
2:03 AM,37.9,28.9,70,30.11,10.0,NE,5.8,-,N/A,,Overcast,40,2012-12-09 07:03:00
2:53 AM,37.9,28.0,68,30.13,10.0,NNE,3.5,-,N/A,,Overcast,30,2012-12-09 07:53:00
3:37 AM,37.0,28.0,70,30.12,10.0,ENE,3.5,-,N/A,,Overcast,60,2012-12-09 08:37:00
3:53 AM,37.0,28.0,70,30.15,10.0,NE,5.8,-,N/A,,Overcast,50,2012-12-09 08:53:00
4:21 AM,37.0,26.1,65,30.13,10.0,ENE,5.8,-,N/A,,Overcast,60,2012-12-09 09:21:00
4:53 AM,36.0,27.0,70,30.15,10.0,East,5.8,-,N/A,,Overcast,80,2012-12-09 09:53:00
5:08 AM,36.0,27.0,70,30.13,10.0,NE,4.6,-,N/A,,Mostly Cloudy,50,2012-12-09 10:08:00
5:22 AM,36.0,26.1,67,30.12,10.0,NE,5.8,-,N/A,,Scattered Clouds,40,2012-12-09 10:22:00
5:53 AM,35.1,26.1,70,30.16,10.0,East,4.6,-,N/A,,Mostly Cloudy,80,2012-12-09 10:53:00
6:53 AM,33.1,26.1,75,30.17,10.0,ESE,4.6,-,N/A,,Clear,110,2012-12-09 11:53:00
7:53 AM,34.0,26.1,73,30.19,10.0,ENE,5.8,-,N/A,,Partly Cloudy,60,2012-12-09 12:53:00
8:53 AM,34.0,26.1,73,30.18,10.0,East,8.1,-,N/A,,Partly Cloudy,100,2012-12-09 13:53:00
9:53 AM,36.0,26.1,67,30.17,10.0,East,9.2,-,N/A,,Overcast,100,2012-12-09 14:53:00
10:53 AM,37.9,27.0,65,30.17,10.0,SE,9.2,-,N/A,,Overcast,130,2012-12-09 15:53:00
11:53 AM,39.0,26.1,60,30.14,10.0,ESE,9.2,-,N/A,,Overcast,120,2012-12-09 16:53:00
12:53 PM,37.9,26.1,62,30.11,10.0,SE,11.5,-,N/A,,Overcast,130,2012-12-09 17:53:00
1:19 PM,39.0,26.1,60,30.05,10.0,SE,9.2,-,N/A,,Overcast,130,2012-12-09 18:19:00
1:53 PM,39.0,27.0,62,30.06,10.0,SE,17.3,21.9,N/A,,Overcast,130,2012-12-09 18:53:00
2:53 PM,39.9,30.0,68,30.04,10.0,SE,11.5,-,N/A,,Overcast,140,2012-12-09 19:53:00
3:53 PM,39.9,30.9,70,30.04,8.0,SE,11.5,-,N/A,,Overcast,140,2012-12-09 20:53:00
4:26 PM,39.0,32.0,76,29.98,10.0,SE,11.5,21.9,N/A,,Overcast,140,2012-12-09 21:26:00
4:53 PM,39.9,32.0,73,30.01,10.0,SE,13.8,-,N/A,,Overcast,140,2012-12-09 21:53:00
5:53 PM,39.9,33.1,77,29.98,10.0,SE,13.8,23.0,N/A,,Overcast,140,2012-12-09 22:53:00
6:53 PM,39.9,34.0,79,29.96,7.0,SE,11.5,-,0.02,Rain,Light Rain,140,2012-12-09 23:53:00
7:53 PM,41.0,35.1,79,29.93,4.0,SE,15.0,20.7,0.03,Rain,Light Rain,140,2012-12-10 00:53:00
8:53 PM,42.1,36.0,79,29.89,4.0,SSE,15.0,23.0,0.07,Rain,Light Rain,150,2012-12-10 01:53:00
9:53 PM,44.1,37.0,76,29.87,9.0,South,8.1,24.2,0.01,Rain,Light Rain,170,2012-12-10 02:53:00
10:53 PM,44.1,37.9,79,29.84,8.0,SSE,9.2,-,0.00,,Overcast,160,2012-12-10 03:53:00
11:08 PM,44.1,37.9,79,29.81,10.0,South,10.4,-,0.00,Rain,Light Rain,170,2012-12-10 04:08:00
11:53 PM,45.0,39.0,80,29.81,10.0,SSE,11.5,-,0.02,Rain,Light Rain,150,2012-12-10 04:53:00